"Timestamp","TZ","WindDir_Mean (deg)","WindSpd_Mean (km/h)","WindSpd_Min (km/h)","WindSpd_Max (km/h)","Temp_Mean (deg)","RH_Mean (%)","MSLP_Mean (hPa)","Rain_Acc (mm)","Rain_Intensity (mm/h)","Hail_Acc (hits/cm2)","Hail_Intensity (hits/cm2hr)","Solar_Mean (W/m2)"
2022/05/20 00:00:00.006,n,171,5.76,3.96,9.36,17.9,73.8,1024.82,0,0,0,0,0.021782
2022/05/20 00:01:00.000,n,214,2.16,0.72,5.04,17.9,73.9,1024.82,0,0,0,0,0.024376
2022/05/20 00:02:00.001,n,216,7.92,7.2,9,17.9,73.7,1024.82,0,0,0,0,0.027847
2022/05/20 00:03:00.000,n,189,5.04,2.88,9.36,17.9,73.7,1024.82,0,0,0,0,0.027008
2022/05/20 00:04:00.000,n,166,8.64,6.12,11.88,17.9,73.7,1024.92,0,0,0,0,0.027008
2022/05/20 00:05:00.008,n,283,3.24,2.16,3.96,17.9,73.6,1024.92,0,0,0,0,0.025253
2022/05/20 00:06:00.005,n,184,2.88,2.16,3.6,17.9,73.7,1024.92,0,0,0,0,0.026131
2022/05/20 00:07:00.003,n,229,3.24,2.16,4.32,18,73.7,1025.02,0,0,0,0,0.023499
2022/05/20 00:08:00.000,n,13,3.24,1.44,6.48,18,73.7,1025.02,0,0,0,0,0.021782
2022/05/20 00:09:00.013,n,197,6.84,2.52,10.8,18,73.4,1025.02,0,0,0,0,0.027008
2022/05/20 00:10:00.000,n,184,7.92,4.68,9.36,18,73.4,1024.92,0,0,0,0,0.022659
2022/05/20 00:11:00.000,n,163,11.88,8.64,14.04,17.9,73.2,1024.92,0,0,0,0,0.022659
2022/05/20 00:12:00.000,n,146,1.44,0.72,1.8,17.9,73.4,1024.92,0,0,0,0,0.023499
2022/05/20 00:13:00.003,n,175,7.2,4.68,9.72,17.9,73.4,1024.82,0,0,0,0,0.020905
2022/05/20 00:14:00.000,n,194,6.12,4.68,8.64,18,73.3,1024.82,0,0,0,0,0.022659
2022/05/20 00:15:00.000,n,179,8.64,6.84,13.32,17.9,73.3,1024.82,0,0,0,0,0.024376
2022/05/20 00:16:00.010,n,165,9,5.4,12.6,17.9,73.3,1024.82,0,0,0,0,0.020905
2022/05/20 00:17:00.007,n,186,10.08,7.56,12.6,17.9,73.4,1024.72,0,0,0,0,0.020027
2022/05/20 00:18:00.004,n,173,9.36,4.68,11.16,17.9,73.5,1024.72,0,0,0,0,0.025215
2022/05/20 00:19:00.000,n,191,6.12,4.68,9.72,17.9,73.5,1024.72,0,0,0,0,0.029602
2022/05/20 00:20:00.000,n,168,12.6,9.72,15.12,17.9,73.4,1024.72,0,0,0,0,0.027809
2022/05/20 00:21:00.000,n,178,7.92,5.76,11.52,17.9,73.7,1024.82,0,0,0,0,0.030441
2022/05/20 00:22:00.000,n,154,11.16,8.28,15.48,17.9,73.7,1024.72,0,0,0,0,0.02697
2022/05/20 00:23:00.005,n,172,3.96,2.52,5.4,17.9,74,1024.72,0,0,0,0,0.030441
2022/05/20 00:24:00.002,n,128,1.8,0.72,2.52,17.9,74,1024.72,0,0,0,0,0.025215
2022/05/20 00:25:00.000,n,151,4.68,2.88,5.76,17.9,74,1024.72,0,0,0,0,0.030441
2022/05/20 00:26:00.013,n,139,3.24,0.72,7.56,17.9,73.9,1024.72,0,0,0,0,0.025215
2022/05/20 00:27:00.010,n,200,5.4,4.32,7.92,17.9,73.7,1024.72,0,0,0,0,0.027809
2022/05/20 00:28:00.000,n,187,5.4,3.6,8.64,17.9,73.9,1024.72,0,0,0,0,0.027809
2022/05/20 00:29:00.000,n,168,5.76,5.04,6.48,17.9,73.7,1024.72,0,0,0,0,0.025215
2022/05/20 00:30:00.000,n,185,10.8,9,14.76,17.9,73.6,1024.62,0,0,0,0,0.02697
2022/05/20 00:31:00.000,n,159,6.84,6.12,6.84,17.9,73.5,1024.52,0,0,0,0,0.026093
2022/05/20 00:32:00.000,n,159,13.68,9.72,16.919998,17.9,73.5,1024.52,0,0,0,0,0.027809
2022/05/20 00:33:00.007,n,153,6.84,5.4,7.56,17.8,73.5,1024.42,0,0,0,0,0.024376
2022/05/20 00:34:00.005,n,151,7.92,6.48,12.96,17.8,73.6,1024.42,0,0,0,0,0.028725
2022/05/20 00:35:00.002,n,144,11.52,10.440002,12.96,17.8,73.8,1024.42,0,0,0,0,0.028725
2022/05/20 00:36:00.000,n,189,6.12,2.88,8.64,17.8,74,1024.42,0,0,0,0,0.029602
2022/05/20 00:37:00.000,n,133,3.6,2.52,4.32,17.8,74,1024.42,0,0,0,0,0.026093
2022/05/20 00:38:00.000,n,170,5.4,3.6,9,17.8,74.1,1024.52,0,0,0,0,0.025215
2022/05/20 00:39:00.000,n,180,5.4,3.6,8.64,17.8,74,1024.52,0,0,0,0,0.027809
2022/05/20 00:40:00.005,n,200,3.24,2.52,3.6,17.8,74.2,1024.62,0,0,0,0,0.026093
2022/05/20 00:41:00.003,n,192,7.92,5.04,11.52,17.8,74,1024.62,0,0,0,0,0.025215
2022/05/20 00:42:00.008,n,161,7.56,5.4,14.76,17.8,73.8,1024.62,0.01,0.5,0,0,0.02697
2022/05/20 00:43:00.000,n,158,6.48,4.32,8.28,17.8,74,1024.62,0.01,0.1,0,0,0.029602
2022/05/20 00:44:00.003,n,110,1.8,0.72,2.88,17.8,74.5,1024.62,0.01,0,0,0,0.022583
2022/05/20 00:45:00.009,n,189,4.68,2.52,7.92,17.8,74.3,1024.62,0.01,0,0,0,0.024376
2022/05/20 00:46:00.000,n,259,1.8,1.44,2.52,17.8,74.5,1024.52,0.01,0,0,0,0.025215
2022/05/20 00:47:00.000,n,156,6.48,2.88,9.72,17.8,74.4,1024.62,0.01,0,0,0,0.026093
2022/05/20 00:48:00.006,n,189,6.84,3.6,8.28,17.8,74.2,1024.52,0.01,0,0,0,0.022583
2022/05/20 00:49:00.007,n,174,9.72,5.4,13.68,17.8,74.4,1024.52,0.01,0,0,0,0.027809
2022/05/20 00:50:00.000,n,164,12.24,7.92,15.84,17.8,73.9,1024.52,0.01,0,0,0,0.027809
2022/05/20 00:51:00.001,n,234,3.96,3.24,6.12,17.8,74.4,1024.52,0.01,0,0,0,0.032196
2022/05/20 00:52:00.006,n,156,7.56,5.76,14.76,17.8,74.1,1024.52,0.01,0,0,0,0.029602
2022/05/20 00:53:00.012,n,185,8.28,6.12,10.440002,17.8,74,1024.52,0.01,0,0,0,0.029602
2022/05/20 00:54:00.000,n,207,6.12,3.6,6.84,17.8,73.9,1024.42,0.01,0,0,0,0.030441
2022/05/20 00:55:00.000,n,178,9.36,6.12,12.96,17.8,73.9,1024.42,0.01,0,0,0,0.029602
2022/05/20 00:56:00.000,n,177,3.96,2.88,8.64,17.8,74.2,1024.42,0.01,0,0,0,0.031319
2022/05/20 00:57:00.000,n,181,7.92,5.04,10.8,17.8,74.3,1024.42,0.01,0,0,0,0.031319
2022/05/20 00:58:00.005,n,192,10.08,6.84,14.76,17.8,73.9,1024.42,0.01,0,0,0,0.029602
2022/05/20 00:59:00.000,n,151,8.28,3.96,13.32,17.8,74.2,1024.42,0.01,0,0,0,0.029602
2022/05/20 01:00:00.000,n,142,5.4,2.88,6.48,17.8,74.1,1024.42,0.01,0,0,0,0.027809
2022/05/20 01:01:00.004,n,181,10.8,7.2,15.12,17.8,74,1024.42,0.01,0,0,0,0.027809
2022/05/20 01:02:00.009,n,167,10.440002,6.84,12.96,17.7,73.9,1024.42,0.01,0,0,0,0.025215
2022/05/20 01:03:00.014,n,303,2.88,0.72,6.48,17.7,74.1,1024.42,0.01,0,0,0,0.025215
2022/05/20 01:04:00.000,n,161,11.16,7.56,14.76,17.7,73.9,1024.42,0.01,0,0,0,0.027809
2022/05/20 01:05:00.000,n,182,11.16,8.64,14.4,17.7,73.9,1024.42,0.01,0,0,0,0.027809
2022/05/20 01:06:00.000,n,177,9,7.2,13.68,17.7,73.8,1024.42,0.01,0,0,0,0.028725
2022/05/20 01:07:00.002,n,160,9.36,3.24,13.68,17.7,73.7,1024.42,0.01,0,0,0,0.028725
2022/05/20 01:08:00.007,n,202,3.24,1.8,5.76,17.7,73.8,1024.42,0.01,0,0,0,0.02697
2022/05/20 01:09:00.000,n,180,7.92,3.6,11.88,17.7,73.5,1024.42,0.01,0,0,0,0.02346
2022/05/20 01:10:00.001,n,191,3.96,3.6,8.64,17.7,73.6,1024.42,0.01,0,0,0,0.022583
2022/05/20 01:11:00.007,n,186,6.84,4.68,7.92,17.7,73.8,1024.42,0.01,0,0,0,0.026093
2022/05/20 01:12:00.014,n,167,7.56,7.2,12.6,17.7,73.7,1024.42,0.01,0,0,0,0.02346
2022/05/20 01:13:00.000,n,178,6.48,4.68,9.36,17.7,73.7,1024.42,0.01,0,0,0,0.020866
2022/05/20 01:14:00.000,n,190,6.84,4.68,8.64,17.7,73.8,1024.32,0.01,0,0,0,0.020866
2022/05/20 01:15:00.000,n,199,9.36,9,10.08,17.7,73.8,1024.32,0.01,0,0,0,0.022583
2022/05/20 01:16:00.003,n,233,3.6,1.08,6.84,17.7,74,1024.32,0.01,0,0,0,0.021744
2022/05/20 01:17:00.008,n,263,1.8,0.36,4.68,17.7,73.9,1024.22,0.01,0,0,0,0.01915
2022/05/20 01:18:00.000,n,169,14.04,9.72,15.84,17.7,73.8,1024.22,0.01,0,0,0,0.01915
2022/05/20 01:19:00.002,n,129,1.44,0.72,6.48,17.7,74.1,1024.22,0.01,0,0,0,0.020866
2022/05/20 01:20:00.008,n,232,5.4,5.04,5.76,17.7,74,1024.22,0.01,0,0,0,0.017395
2022/05/20 01:21:00.013,n,160,8.64,4.68,12.24,17.7,74,1024.22,0.01,0,0,0,0.020866
2022/05/20 01:22:00.001,n,145,4.32,3.96,4.68,17.7,74,1024.22,0.01,0,0,0,0.019989
2022/05/20 01:23:00.000,n,201,6.12,3.6,7.92,17.7,74.6,1024.22,0.01,0,0,0,0.020866
2022/05/20 01:24:00.000,n,149,5.76,4.68,12.24,17.7,74,1024.22,0.01,0,0,0,0.026169
2022/05/20 01:25:00.000,n,184,3.6,2.52,7.2,17.7,74,1024.22,0.01,0,0,0,0.033951
2022/05/20 01:26:00.004,n,297,3.24,2.52,3.6,17.7,74,1024.22,0.01,0,0,0,0.031357
2022/05/20 01:27:00.010,n,176,3.6,1.8,7.2,17.7,74.2,1024.22,0.01,0,0,0,0.028763
2022/05/20 01:28:00.000,n,138,2.88,1.08,3.96,17.7,74.1,1024.22,0.01,0,0,0,0.032234
2022/05/20 01:29:00.005,n,233,4.68,2.88,5.04,17.7,74.1,1024.22,0.01,0,0,0,0.031357
2022/05/20 01:30:00.010,n,250,1.8,0.72,5.04,17.7,74.1,1024.22,0.01,0,0,0,0.030518
2022/05/20 01:31:00.000,n,246,3.24,2.52,3.24,17.7,74,1024.22,0.01,0,0,0,0.031357
2022/05/20 01:32:00.000,n,175,6.12,3.24,7.92,17.7,74.1,1024.22,0.01,0,0,0,0.032234
2022/05/20 01:33:00.000,n,212,2.52,1.08,6.48,17.7,74,1024.22,0.01,0,0,0,0.029602
2022/05/20 01:34:00.000,n,123,1.44,0.36,5.4,17.7,73.9,1024.22,0.01,0,0,0,0.031357
2022/05/20 01:35:00.005,n,237,1.08,0,5.04,17.7,74,1024.22,0.01,0,0,0,0.030518
2022/05/20 01:36:00.009,n,184,2.16,0.72,4.68,17.7,74,1024.22,0.01,0,0,0,0.032234
2022/05/20 01:37:00.000,n,275,0.72,0.36,1.08,17.7,74.3,1024.22,0.01,0,0,0,0.029602
2022/05/20 01:38:00.004,n,176,6.12,2.88,11.88,17.7,74,1024.22,0.01,0,0,0,0.035744
2022/05/20 01:39:00.010,n,177,3.96,2.88,4.68,17.7,74.1,1024.22,0.01,0,0,0,0.032234
2022/05/20 01:40:00.000,n,187,2.52,1.44,4.68,17.7,74.1,1024.22,0.01,0,0,0,0.028763
2022/05/20 01:41:00.000,n,199,2.88,2.16,6.12,17.8,74.4,1024.32,0.01,0,0,0,0.033951
2022/05/20 01:42:00.000,n,162,5.76,3.24,11.16,17.8,74,1024.32,0.01,0,0,0,0.028763
2022/05/20 01:43:00.000,n,153,0.36,0,0.72,17.8,74.1,1024.32,0.01,0,0,0,0.030518
2022/05/20 01:44:00.005,n,196,2.88,1.44,5.4,17.8,74.4,1024.32,0.01,0,0,0,0.033951
2022/05/20 01:45:00.010,n,171,0.72,0.36,5.76,17.8,74.3,1024.32,0.01,0,0,0,0.030518
2022/05/20 01:46:00.000,n,242,0.36,0.36,0.72,17.8,74.1,1024.32,0.01,0,0,0,0.030518
2022/05/20 01:47:00.006,n,293,1.08,0.36,1.8,17.8,74.3,1024.22,0.01,0,0,0,0.028763
2022/05/20 01:48:00.011,n,180,2.16,0.36,7.2,17.8,74.4,1024.22,0.01,0,0,0,0.032234
2022/05/20 01:49:00.000,n,142,3.24,2.16,3.96,17.8,73.9,1024.12,0.01,0,0,0,0.028763
2022/05/20 01:50:00.000,n,169,6.12,4.68,10.08,17.8,73.7,1024.12,0.01,0,0,0,0.031357
2022/05/20 01:51:00.000,n,159,6.12,2.52,10.08,17.7,73.6,1024.12,0.01,0,0,0,0.032234
2022/05/20 01:52:00.000,n,185,9.72,7.56,13.68,17.7,73.7,1024.02,0.01,0,0,0,0.031357
2022/05/20 01:53:00.007,n,167,10.440002,6.12,12.96,17.7,73.7,1024.12,0.01,0,0,0,0.033112
2022/05/20 01:54:00.000,n,169,11.88,8.28,15.12,17.7,73.8,1024.02,0.01,0,0,0,0.030518
2022/05/20 01:55:00.001,n,142,5.04,4.32,5.4,17.7,74,1024.02,0.01,0,0,0,0.033951
2022/05/20 01:56:00.007,n,153,1.8,0.36,6.12,17.7,74.2,1023.92,0.01,0,0,0,0.033112
2022/05/20 01:57:00.013,n,145,6.84,6.48,7.2,17.7,74.2,1023.92,0.01,0,0,0,0.032234
2022/05/20 01:58:00.001,n,133,2.52,1.08,5.76,17.6,74.4,1023.92,0.01,0,0,0,0.032234
2022/05/20 01:59:00.000,n,163,5.76,4.32,9,17.6,74.4,1023.92,0.01,0,0,0,0.034828
2022/05/20 02:00:00.000,n,177,3.96,1.44,9.36,17.6,74.3,1023.92,0.01,0,0,0,0.034828
2022/05/20 02:01:00.001,n,127,3.96,3.24,4.68,17.6,74.5,1023.92,0.01,0,0,0,0.032234
2022/05/20 02:02:00.006,n,162,2.88,1.08,6.84,17.6,74.4,1024.02,0.01,0,0,0,0.034828
2022/05/20 02:03:00.000,n,166,14.4,14.04,15.48,17.6,74.1,1024.02,0.01,0,0,0,0.029602
2022/05/20 02:04:00.000,n,175,8.64,5.4,12.96,17.6,73.9,1024.02,0.01,0,0,0,0.034828
2022/05/20 02:05:00.006,n,171,9,5.4,11.88,17.6,73.9,1024.02,0.01,0,0,0,0.033112
2022/05/20 02:06:00.013,n,104,2.88,2.16,4.32,17.6,74.1,1023.92,0.01,0,0,0,0.033951
2022/05/20 02:07:00.001,n,187,4.32,2.16,7.2,17.6,74.2,1023.92,0.01,0,0,0,0.033951
2022/05/20 02:08:00.000,n,183,6.12,3.96,9.36,17.6,74.2,1023.92,0.01,0,0,0,0.034828
2022/05/20 02:09:00.000,n,212,3.24,0.72,6.48,17.6,74.1,1024.02,0.01,0,0,0,0.033112
2022/05/20 02:10:00.002,n,251,1.08,0.72,2.16,17.6,74.2,1024.02,0.01,0,0,0,0.033112
2022/05/20 02:11:00.007,n,198,1.08,0.36,2.16,17.6,74.3,1024.02,0.01,0,0,0,0.030518
2022/05/20 02:12:00.000,n,152,0.36,0,0.36,17.6,74.5,1024.02,0.01,0,0,0,0.033112
2022/05/20 02:13:00.001,n,73,0.72,0,4.68,17.6,74.8,1024.02,0.01,0,0,0,0.034828
2022/05/20 02:14:00.007,n,135,4.32,3.96,4.68,17.6,74.3,1024.02,0.01,0,0,0,0.031357
2022/05/20 02:15:00.013,n,201,6.12,3.6,9,17.6,74.4,1023.92,0.01,0,0,0,0.030518
2022/05/20 02:16:00.001,n,178,3.96,2.88,8.64,17.6,74.4,1023.92,0.01,0,0,0,0.029602
2022/05/20 02:17:00.000,n,184,4.68,2.88,9,17.6,74.3,1023.92,0.01,0,0,0,0.031357
2022/05/20 02:18:00.000,n,191,9.72,7.56,12.96,17.6,74.2,1023.82,0.01,0,0,0,0.033112
2022/05/20 02:19:00.001,n,171,8.64,5.04,13.32,17.6,74.3,1023.82,0.01,0,0,0,0.031357
2022/05/20 02:20:00.007,n,165,4.68,1.8,7.92,17.6,74.3,1023.82,0.01,0,0,0,0.031357
2022/05/20 02:21:00.000,n,181,9.72,6.48,12.6,17.6,74.4,1023.82,0.01,0,0,0,0.029602
2022/05/20 02:22:00.001,n,174,9.36,5.76,11.52,17.6,74.5,1023.82,0.01,0,0,0,0.030518
2022/05/20 02:23:00.007,n,214,4.32,2.88,6.48,17.5,74.6,1023.82,0.01,0,0,0,0.028763
2022/05/20 02:24:00.012,n,187,6.12,2.16,9.36,17.5,74.6,1023.82,0.01,0,0,0,0.027008
2022/05/20 02:25:00.000,n,162,3.24,2.52,7.56,17.5,74.6,1023.92,0.01,0,0,0,0.027008
2022/05/20 02:26:00.000,n,168,5.04,2.52,6.48,17.5,74.8,1023.82,0.01,0,0,0,0.028763
2022/05/20 02:27:00.000,n,330,0.36,0.36,0.72,17.5,74.8,1023.82,0.01,0,0,0,0.029602
2022/05/20 02:28:00.000,n,273,3.6,3.24,3.96,17.5,75,1023.92,0.01,0,0,0,0.026169
2022/05/20 02:29:00.005,n,274,2.52,2.16,2.52,17.6,75.4,1023.92,0.01,0,0,0,0.027885
2022/05/20 02:30:00.011,n,150,6.48,5.4,8.28,17.5,74.7,1023.92,0.01,0,0,0,0.027885
2022/05/20 02:31:00.000,n,276,2.52,1.8,2.88,17.5,74.8,1023.92,0.01,0,0,0,0.026169
2022/05/20 02:32:00.005,n,310,0.72,0.36,1.08,17.5,75.4,1024.02,0.01,0,0,0,0.030518
2022/05/20 02:33:00.010,n,151,4.68,3.96,9.72,17.6,74.8,1024.02,0.01,0,0,0,0.027008
2022/05/20 02:34:00.000,n,206,2.16,1.08,4.68,17.6,74.7,1024.02,0.01,0,0,0,0.027885
2022/05/20 02:35:00.000,n,280,3.24,2.52,4.32,17.5,75,1024.02,0.01,0,0,0,0.029602
2022/05/20 02:36:00.000,n,115,1.44,0.72,1.44,17.6,75.2,1024.02,0.01,0,0,0,0.027885
2022/05/20 02:37:00.000,n,217,2.16,1.8,3.24,17.6,75,1024.02,0.01,0,0,0,0.029602
2022/05/20 02:38:00.007,n,200,0.72,0.36,1.08,17.6,75.3,1024.02,0.01,0,0,0,0.030518
2022/05/20 02:39:00.000,n,216,1.8,1.44,3.6,17.6,75,1024.02,0.01,0,0,0,0.024376
2022/05/20 02:40:00.001,n,63,1.44,0.36,4.32,17.6,75.3,1024.02,0.01,0,0,0,0.027885
2022/05/20 02:41:00.007,n,190,1.44,0.36,5.4,17.6,75,1023.92,0.01,0,0,0,0.027008
2022/05/20 02:42:00.012,n,342,0.72,0.36,0.72,17.6,75.1,1023.92,0.01,0,0,0,0.026169
2022/05/20 02:43:00.000,n,168,3.24,1.44,5.4,17.7,74.7,1023.92,0.01,0,0,0,0.026169
2022/05/20 02:44:00.000,n,154,2.88,1.8,6.84,17.6,74.8,1023.82,0.01,0,0,0,0.025291
2022/05/20 02:45:00.000,n,163,7.2,4.68,12.96,17.6,74.3,1023.82,0.01,0,0,0,0.027885
2022/05/20 02:46:00.000,n,142,4.68,3.96,5.4,17.6,74.5,1023.82,0.01,0,0,0,0.027885
2022/05/20 02:47:00.005,n,166,11.52,6.84,15.12,17.5,74.5,1023.72,0.01,0,0,0,0.027008
2022/05/20 02:48:00.011,n,180,8.64,6.12,10.440002,17.5,74.6,1023.72,0.01,0,0,0,0.025291
2022/05/20 02:49:00.000,n,173,3.96,3.24,7.56,17.5,74.7,1023.72,0.01,0,0,0,0.027885
2022/05/20 02:50:00.005,n,132,1.44,1.08,2.16,17.5,74.8,1023.72,0.01,0,0,0,0.031357
2022/05/20 02:51:00.010,n,211,1.44,1.08,4.68,17.5,75,1023.72,0.01,0,0,0,0.029602
2022/05/20 02:52:00.000,n,187,3.24,0.72,7.92,17.5,75.2,1023.72,0.01,0,0,0,0.028763
2022/05/20 02:53:00.000,n,149,6.12,4.32,12.24,17.5,74.8,1023.72,0.01,0,0,0,0.028763
2022/05/20 02:54:00.000,n,186,5.4,3.96,8.64,17.5,74.9,1023.72,0.01,0,0,0,0.027885
2022/05/20 02:55:00.000,n,183,1.8,0.36,6.84,17.4,75.2,1023.72,0.01,0,0,0,0.024376
2022/05/20 02:56:00.005,n,130,4.32,3.6,4.68,17.4,75.3,1023.72,0.01,0,0,0,0.023537
2022/05/20 02:57:00.010,n,177,8.64,5.4,10.8,17.4,75.3,1023.62,0.01,0,0,0,0.027008
2022/05/20 02:58:00.000,n,165,8.28,5.4,12.24,17.4,75.2,1023.62,0.01,0,0,0,0.025291
2022/05/20 02:59:00.004,n,148,5.4,3.96,6.12,17.4,75.4,1023.62,0.01,0,0,0,0.027885
2022/05/20 03:00:00.010,n,153,4.32,3.96,5.04,17.4,75.4,1023.62,0.01,0,0,0,0.027885
2022/05/20 03:01:00.000,n,135,6.12,4.32,8.28,17.4,75.5,1023.72,0.01,0,0,0,0.027008
2022/05/20 03:02:00.000,n,142,3.24,2.88,3.6,17.4,75.5,1023.72,0.01,0,0,0,0.027885
2022/05/20 03:03:00.000,n,205,2.88,1.8,5.04,17.4,75.6,1023.72,0.01,0,0,0,0.023537
2022/05/20 03:04:00.000,n,152,3.24,2.88,3.24,17.4,75.5,1023.72,0.01,0,0,0,0.024376
2022/05/20 03:05:00.006,n,279,1.44,1.08,1.44,17.4,75.6,1023.72,0.01,0,0,0,0.026169
2022/05/20 03:06:00.011,n,159,5.4,3.24,7.92,17.4,75.5,1023.72,0.01,0,0,0,0.026169
2022/05/20 03:07:00.000,n,184,6.12,3.96,8.28,17.4,75.5,1023.82,0.01,0,0,0,0.026169
2022/05/20 03:08:00.004,n,182,5.4,4.32,6.84,17.4,75.3,1023.82,0.01,0,0,0,0.024376
2022/05/20 03:09:00.010,n,182,7.56,5.04,9,17.4,75.2,1023.82,0.01,0,0,0,0.027885
2022/05/20 03:10:00.000,n,173,6.48,4.32,11.52,17.4,75,1023.82,0.01,0,0,0,0.025291
2022/05/20 03:11:00.000,n,162,7.92,6.84,9.36,17.4,74.9,1023.82,0.01,0,0,0,0.027885
2022/05/20 03:12:00.000,n,185,7.56,4.32,9.72,17.4,74.9,1023.82,0.01,0,0,0,0.027885
2022/05/20 03:13:00.000,n,135,2.88,1.8,3.6,17.4,74.9,1023.82,0.01,0,0,0,0.025291
2022/05/20 03:14:00.004,n,207,8.64,7.2,10.08,17.4,74.8,1023.82,0.01,0,0,0,0.026169
2022/05/20 03:15:00.009,n,174,3.96,3.24,7.92,17.5,74.9,1023.82,0.01,0,0,0,0.025291
2022/05/20 03:16:00.000,n,199,4.32,1.44,5.76,17.5,74.9,1023.82,0.01,0,0,0,0.024376
2022/05/20 03:17:00.004,n,148,5.76,4.68,12.6,17.5,75,1023.82,0.01,0,0,0,0.021782
2022/05/20 03:18:00.009,n,160,6.84,5.4,10.8,17.5,75.1,1023.82,0.01,0,0,0,0.025291
2022/05/20 03:19:00.000,n,179,8.28,6.12,10.440002,17.5,75,1023.82,0.01,0,0,0,0.025291
2022/05/20 03:20:00.003,n,164,6.12,5.04,10.8,17.4,75.1,1023.92,0.01,0,0,0,0.022659
2022/05/20 03:21:00.000,n,149,3.24,1.44,7.2,17.4,75.1,1023.92,0.01,0,0,0,0.024376
2022/05/20 03:22:00.000,n,103,2.16,1.08,3.6,17.4,75.2,1023.92,0.01,0,0,0,0.022659
2022/05/20 03:23:00.003,n,183,9,5.4,14.04,17.4,75,1023.92,0.01,0,0,0,0.027885
2022/05/20 03:24:00.009,n,182,9,6.84,11.16,17.4,74.9,1023.92,0.01,0,0,0,0.024376
2022/05/20 03:25:00.000,n,143,2.52,1.08,6.12,17.4,75,1023.92,0.01,0,0,0,0.026169
2022/05/20 03:26:00.003,n,170,10.440002,5.4,12.96,17.4,74.9,1024.02,0.01,0,0,0,0.025291
2022/05/20 03:27:00.008,n,198,3.24,2.88,4.68,17.4,75,1024.02,0.01,0,0,0,0.027008
2022/05/20 03:28:00.000,n,194,6.12,3.96,9.72,17.5,74.8,1024.02,0.01,0,0,0,0.027008
2022/05/20 03:29:00.003,n,146,8.64,6.84,15.12,17.5,74.7,1024.02,0.01,0,0,0,0.024376
2022/05/20 03:30:00.000,n,270,0.36,0.36,0.72,17.5,74.8,1024.02,0.01,0,0,0,0.023537
2022/05/20 03:31:00.000,n,253,2.16,1.8,2.52,17.5,74.9,1024.02,0.01,0,0,0,0.022659
2022/05/20 03:32:00.005,n,38,0.72,0,1.8,17.5,75.1,1024.12,0.01,0,0,0,0.022659
2022/05/20 03:33:00.010,n,209,3.24,2.52,3.96,17.5,75,1024.12,0.01,0,0,0,0.028763
2022/05/20 03:34:00.000,n,53,1.44,0.36,4.32,17.5,75,1024.12,0.01,0,0,0,0.022659
2022/05/20 03:35:00.004,n,176,5.4,4.32,7.56,17.5,74.9,1024.12,0.01,0,0,0,0.027885
2022/05/20 03:36:00.010,n,210,2.88,1.44,5.76,17.5,75,1024.12,0.01,0,0,0,0.022659
2022/05/20 03:37:00.000,n,168,1.44,0.36,2.88,17.6,74.9,1024.12,0.01,0,0,0,0.021782
2022/05/20 03:38:00.000,n,204,2.88,2.16,4.68,17.6,74.8,1024.12,0.01,0,0,0,0.024376
2022/05/20 03:39:00.000,n,293,0.72,0.36,1.44,17.6,74.7,1024.12,0.01,0,0,0,0.023537
2022/05/20 03:40:00.001,n,185,6.84,5.04,10.440002,17.5,74.5,1024.12,0.01,0,0,0,0.027008
2022/05/20 03:41:00.006,n,136,2.52,1.8,3.24,17.5,74.4,1024.12,0.01,0,0,0,0.025291
2022/05/20 03:42:00.011,n,109,2.16,1.08,3.6,17.5,74.5,1024.12,0.01,0,0,0,0.027008
2022/05/20 03:43:00.000,n,267,2.88,2.88,3.24,17.5,74.7,1024.12,0.01,0,0,0,0.021782
2022/05/20 03:44:00.006,n,236,1.08,0.72,1.8,17.5,74.7,1024.12,0.01,0,0,0,0.025215
2022/05/20 03:45:00.009,n,245,2.52,1.8,3.24,17.5,74.6,1024.12,0.01,0,0,0,0.028725
2022/05/20 03:46:00.000,n,291,0.72,0,1.08,17.5,74.5,1024.12,0.01,0,0,0,0.028725
2022/05/20 03:47:00.003,n,249,1.08,0.72,4.68,17.6,74.4,1024.12,0.01,0,0,0,0.032196
2022/05/20 03:48:00.000,n,251,0.36,0.36,0.72,17.6,74.6,1024.12,0.01,0,0,0,0.033073
2022/05/20 03:49:00.000,n,132,1.8,0.36,4.32,17.6,74.7,1024.12,0.01,0,0,0,0.026093
2022/05/20 03:50:00.003,n,106,2.52,1.8,3.6,17.6,74.3,1024.12,0.01,0,0,0,0.03479
2022/05/20 03:51:00.008,n,175,5.04,4.32,9,17.5,74.2,1024.12,0.01,0,0,0,0.030441
2022/05/20 03:52:00.000,n,190,8.64,6.48,12.24,17.5,74.2,1024.12,0.01,0,0,0,0.030441
2022/05/20 03:53:00.002,n,177,7.2,5.76,9.72,17.5,74.2,1024.12,0.01,0,0,0,0.036583
2022/05/20 03:54:00.008,n,174,3.24,1.8,4.68,17.5,74.3,1024.12,0.01,0,0,0,0.037422
2022/05/20 03:55:00.000,n,154,9,6.84,12.96,17.4,74.4,1024.22,0.01,0,0,0,0.033951
2022/05/20 03:56:00.001,n,179,8.64,4.32,12.96,17.4,74.5,1024.22,0.01,0,0,0,0.033951
2022/05/20 03:57:00.000,n,168,4.68,2.88,7.2,17.4,74.6,1024.22,0.01,0,0,0,0.032196
2022/05/20 03:58:00.000,n,187,3.24,1.44,8.28,17.4,74.8,1024.22,0.01,0,0,0,0.033951
2022/05/20 03:59:00.001,n,197,6.84,6.12,9.36,17.4,74.6,1024.22,0.01,0,0,0,0.031357
2022/05/20 04:00:00.006,n,145,4.32,3.24,5.04,17.4,74.6,1024.22,0.01,0,0,0,0.035667
2022/05/20 04:01:00.012,n,125,2.52,1.8,5.4,17.4,74.3,1024.22,0.01,0,0,0,0.03479
2022/05/20 04:02:00.000,n,143,5.4,4.32,6.12,17.4,74.5,1024.22,0.01,0,0,0,0.033951
2022/05/20 04:03:00.006,n,163,9.72,2.16,13.68,17.3,74.4,1024.22,0.01,0,0,0,0.03479
2022/05/20 04:04:00.000,n,170,15.84,12.6,18.72,17.3,74.3,1024.22,0.01,0,0,0,0.033073
2022/05/20 04:05:00.000,n,173,6.12,3.24,9.36,17.3,74.5,1024.22,0.01,0,0,0,0.033951
2022/05/20 04:06:00.005,n,166,8.64,5.04,12.24,17.3,74.4,1024.22,0.01,0,0,0,0.033951
2022/05/20 04:07:00.000,n,143,8.64,4.68,11.52,17.3,74.3,1024.22,0.01,0,0,0,0.032196
2022/05/20 04:08:00.000,n,81,1.8,0.36,4.68,17.3,74.5,1024.32,0.01,0,0,0,0.032196
2022/05/20 04:09:00.005,n,159,9,7.56,14.04,17.3,74.4,1024.22,0.01,0,0,0,0.033073
2022/05/20 04:10:00.011,n,190,7.92,5.76,10.440002,17.3,74.5,1024.32,0.01,0,0,0,0.029602
2022/05/20 04:11:00.000,n,203,5.4,4.32,6.48,17.3,74.5,1024.32,0.01,0,0,0,0.028725
2022/05/20 04:12:00.005,n,132,4.32,3.24,5.76,17.3,74.4,1024.32,0.01,0,0,0,0.030441
2022/05/20 04:13:00.000,n,160,7.2,5.04,11.52,17.3,74.4,1024.32,0.01,0,0,0,0.031357
2022/05/20 04:14:00.000,n,215,1.08,0.36,1.8,17.3,74.5,1024.32,0.01,0,0,0,0.029602
2022/05/20 04:15:00.005,n,172,8.64,5.04,11.88,17.3,74.2,1024.32,0.01,0,0,0,0.031357
2022/05/20 04:16:00.000,n,149,2.16,1.8,2.52,17.3,74.4,1024.42,0.01,0,0,0,0.030441
2022/05/20 04:17:00.000,n,169,6.48,2.88,10.440002,17.3,74.4,1024.42,0.01,0,0,0,0.028725
2022/05/20 04:18:00.004,n,259,1.08,0.72,1.44,17.3,74.5,1024.42,0.01,0,0,0,0.028725
2022/05/20 04:19:00.010,n,196,4.32,3.6,7.56,17.3,74.5,1024.32,0.01,0,0,0,0.027008
2022/05/20 04:20:00.000,n,163,6.48,1.8,11.52,17.3,74.5,1024.32,0.01,0,0,0,0.027847
2022/05/20 04:21:00.004,n,188,3.24,2.16,7.56,17.3,74.4,1024.42,0.01,0,0,0,0.027008
2022/05/20 04:22:00.000,n,182,3.6,2.88,5.76,17.3,74.4,1024.32,0.01,0,0,0,0.027008
2022/05/20 04:23:00.000,n,144,5.76,1.8,9,17.3,74.5,1024.32,0.01,0,0,0,0.027008
2022/05/20 04:24:00.004,n,191,6.84,4.32,8.28,17.3,74.2,1024.32,0.01,0,0,0,0.023499
2022/05/20 04:25:00.000,n,171,6.12,4.32,12.24,17.3,74.2,1024.42,0.01,0,0,0,0.025215
2022/05/20 04:26:00.000,n,178,11.52,9.36,15.12,17.3,74.2,1024.32,0.01,0,0,0,0.026093
2022/05/20 04:27:00.004,n,192,8.28,6.48,12.24,17.2,74.1,1024.32,0.01,0,0,0,0.026093
2022/05/20 04:28:00.009,n,163,12.24,11.88,13.32,17.2,74.2,1024.32,0.01,0,0,0,0.024376
2022/05/20 04:29:00.015,n,201,5.4,2.88,9,17.2,74.3,1024.32,0.01,0,0,0,0.029602
2022/05/20 04:30:00.004,n,187,8.28,6.48,11.52,17.2,74.2,1024.32,0.01,0,0,0,0.024376
2022/05/20 04:31:00.000,n,203,7.2,6.48,7.92,17.2,74.4,1024.32,0.01,0,0,0,0.026093
2022/05/20 04:32:00.000,n,161,9.36,6.12,14.04,17.2,74.4,1024.32,0.01,0,0,0,0.025215
2022/05/20 04:33:00.004,n,180,9.72,5.4,13.68,17.2,74.4,1024.32,0.01,0,0,0,0.025215
2022/05/20 04:34:00.000,n,180,3.6,2.52,7.92,17.2,74.6,1024.32,0.01,0,0,0,0.023499
2022/05/20 04:35:00.000,n,181,11.52,6.84,14.4,17.2,74.6,1024.32,0.01,0,0,0,0.025215
2022/05/20 04:36:00.003,n,179,3.6,1.44,8.28,17.2,74.8,1024.32,0.01,0,0,0,0.020866
2022/05/20 04:37:00.009,n,181,9.36,6.12,13.32,17.2,74.7,1024.42,0.01,0,0,0,0.025215
2022/05/20 04:38:00.014,n,175,7.56,5.04,11.88,17.2,74.7,1024.42,0.01,0,0,0,0.023499
2022/05/20 04:39:00.004,n,149,6.48,5.76,7.92,17.2,74.8,1024.42,0.01,0,0,0,0.023499
2022/05/20 04:40:00.000,n,162,8.28,4.32,12.6,17.2,74.8,1024.42,0.01,0,0,0,0.023499
2022/05/20 04:41:00.001,n,181,7.56,5.04,9.36,17.2,75,1024.42,0.01,0,0,0,0.025215
2022/05/20 04:42:00.000,n,158,3.24,2.16,4.68,17.2,74.9,1024.52,0.01,0,0,0,0.024376
2022/05/20 04:43:00.000,n,179,3.24,2.52,6.84,17.2,74.8,1024.52,0.01,0,0,0,0.025215
2022/05/20 04:44:00.001,n,212,3.24,2.16,4.32,17.2,74.9,1024.52,0.01,0,0,0,0.022621